Time,TemperatureF,DewpointF,PressureIn,WindDirection,WindDirectionDegrees,WindSpeedMPH,WindSpeedGustMPH,Humidity,HourlyPrecipIn,Conditions,Clouds,dailyrainin,SoftwareType,DateUTC
2013-04-08 00:03:00,38.0,32.0,29.97,WNW,299,0.0,0.0,79,0.00,,,0.00,,2013-04-08 04:03:00,
2013-04-08 00:13:00,38.0,32.0,29.97,WNW,299,0.0,0.0,79,0.00,,,0.00,,2013-04-08 04:13:00,
2013-04-08 00:23:00,37.0,31.0,29.97,WNW,299,0.0,0.0,80,0.00,,,0.00,,2013-04-08 04:23:00,
2013-04-08 00:33:00,36.0,31.0,29.97,WNW,299,0.0,0.0,82,0.00,,,0.00,,2013-04-08 04:33:00,
2013-04-08 00:44:00,36.0,31.0,29.97,WNW,299,0.0,0.0,82,0.00,,,0.00,,2013-04-08 04:44:00,
2013-04-08 00:52:00,34.0,30.0,29.97,WNW,299,0.0,0.0,84,0.00,,,0.00,,2013-04-08 04:52:00,
2013-04-08 01:02:00,34.0,30.0,29.96,WNW,299,0.0,0.0,84,0.00,,,0.00,,2013-04-08 05:02:00,
2013-04-08 01:12:00,34.0,30.0,29.96,WNW,299,0.0,0.0,84,0.00,,,0.00,,2013-04-08 05:12:00,
2013-04-08 01:22:00,34.0,30.0,29.96,WNW,299,0.0,0.0,84,0.00,,,0.00,,2013-04-08 05:22:00,
2013-04-08 01:32:00,32.0,28.0,29.97,WNW,299,0.0,0.0,86,0.00,,,0.00,,2013-04-08 05:32:00,
2013-04-08 01:42:00,32.0,29.0,29.97,WNW,299,0.0,0.0,88,0.00,,,0.00,,2013-04-08 05:42:00,
2013-04-08 01:52:00,32.0,29.0,29.97,WNW,299,0.0,0.0,88,0.00,,,0.00,,2013-04-08 05:52:00,
2013-04-08 02:02:00,31.0,28.0,29.97,WNW,299,0.0,0.0,88,0.00,,,0.00,,2013-04-08 06:02:00,
2013-04-08 02:12:00,31.0,28.0,29.96,WNW,299,0.0,0.0,88,0.00,,,0.00,,2013-04-08 06:12:00,
2013-04-08 02:22:00,31.0,28.0,29.96,WNW,299,0.0,0.0,88,0.00,,,0.00,,2013-04-08 06:22:00,
2013-04-08 02:32:00,31.0,28.0,29.96,WNW,299,0.0,0.0,89,0.00,,,0.00,,2013-04-08 06:32:00,
2013-04-08 02:43:00,31.0,28.0,29.96,WNW,299,0.0,0.0,89,0.00,,,0.00,,2013-04-08 06:43:00,
2013-04-08 02:52:00,31.0,28.0,29.95,WNW,299,0.0,0.0,89,0.00,,,0.00,,2013-04-08 06:52:00,
2013-04-08 03:02:00,31.0,28.0,29.95,WNW,299,0.0,0.0,90,0.00,,,0.00,,2013-04-08 07:02:00,
2013-04-08 03:12:00,31.0,28.0,29.95,WNW,299,0.0,0.0,90,0.00,,,0.00,,2013-04-08 07:12:00,
2013-04-08 03:22:00,32.0,29.0,29.95,WNW,299,0.0,0.0,90,0.00,,,0.00,,2013-04-08 07:22:00,
2013-04-08 03:33:00,32.0,29.0,29.95,WNW,299,0.0,0.0,90,0.00,,,0.00,,2013-04-08 07:33:00,
2013-04-08 03:42:00,32.0,29.0,29.95,WNW,299,0.0,0.0,90,0.00,,,0.00,,2013-04-08 07:42:00,
2013-04-08 03:52:00,32.0,29.0,29.94,WNW,299,0.0,0.0,90,0.00,,,0.00,,2013-04-08 07:52:00,
2013-04-08 04:02:00,32.0,29.0,29.94,WNW,299,0.0,0.0,90,0.00,,,0.00,,2013-04-08 08:02:00,
2013-04-08 04:12:00,32.0,29.0,29.94,WNW,299,0.0,0.0,90,0.00,,,0.00,,2013-04-08 08:12:00,
2013-04-08 04:22:00,32.0,29.0,29.94,WNW,299,0.0,0.0,90,0.00,,,0.00,,2013-04-08 08:22:00,
2013-04-08 04:33:00,32.0,29.0,29.94,WNW,299,0.0,0.0,90,0.00,,,0.00,,2013-04-08 08:33:00,
2013-04-08 04:43:00,31.0,28.0,29.95,WNW,299,0.0,0.0,90,0.00,,,0.00,,2013-04-08 08:43:00,
2013-04-08 04:52:00,31.0,28.0,29.95,WNW,299,0.0,0.0,90,0.00,,,0.00,,2013-04-08 08:52:00,
2013-04-08 05:02:00,30.0,27.0,29.95,WNW,299,0.0,0.0,90,0.00,,,0.00,,2013-04-08 09:02:00,
2013-04-08 05:12:00,30.0,28.0,29.94,WNW,299,0.0,0.0,91,0.00,,,0.00,,2013-04-08 09:12:00,
2013-04-08 05:23:00,30.0,28.0,29.94,WNW,299,0.0,0.0,91,0.00,,,0.00,,2013-04-08 09:23:00,
2013-04-08 05:33:00,30.0,28.0,29.93,WNW,299,0.0,0.0,91,0.00,,,0.00,,2013-04-08 09:33:00,
2013-04-08 05:43:00,30.0,28.0,29.93,WNW,299,0.0,0.0,91,0.00,,,0.00,,2013-04-08 09:43:00,
2013-04-08 05:53:00,31.0,29.0,29.93,WSW,242,0.0,0.0,92,0.00,,,0.00,,2013-04-08 09:53:00,
2013-04-08 06:03:00,32.0,30.0,29.92,SW,215,0.0,0.0,92,0.00,,,0.00,,2013-04-08 10:03:00,
2013-04-08 06:13:00,32.0,30.0,29.92,SW,215,0.0,0.0,92,0.00,,,0.00,,2013-04-08 10:13:00,
2013-04-08 06:23:00,32.0,30.0,29.93,SW,214,0.0,0.0,92,0.00,,,0.00,,2013-04-08 10:23:00,
2013-04-08 06:30:00,32.0,30.0,29.92,SW,214,0.0,0.0,91,0.00,,,0.00,,2013-04-08 10:30:00,
2013-04-08 06:33:00,32.0,30.0,29.93,SW,214,0.0,0.0,92,0.00,,,0.00,,2013-04-08 10:33:00,
2013-04-08 06:42:00,32.0,30.0,29.93,SW,214,0.0,0.0,92,0.00,,,0.00,,2013-04-08 10:42:00,
2013-04-08 06:52:00,32.0,30.0,29.92,SW,214,0.0,0.0,91,0.00,,,0.00,,2013-04-08 10:52:00,
2013-04-08 07:03:00,32.0,30.0,29.92,SW,214,0.0,0.0,91,0.00,,,0.00,,2013-04-08 11:03:00,
2013-04-08 07:12:00,32.0,30.0,29.92,SW,214,0.0,0.0,91,0.00,,,0.00,,2013-04-08 11:12:00,
2013-04-08 07:23:00,32.0,30.0,29.92,SW,214,0.0,0.0,91,0.00,,,0.00,,2013-04-08 11:23:00,
2013-04-08 07:53:00,33.0,31.0,29.91,East,91,0.0,2.0,91,0.00,,,0.00,,2013-04-08 11:53:00,
2013-04-08 08:12:00,33.0,31.0,29.91,East,91,0.0,2.0,91,0.00,,,0.00,,2013-04-08 12:12:00,
2013-04-08 08:23:00,34.0,32.0,29.89,NE,53,0.0,1.0,91,0.00,,,0.00,,2013-04-08 12:23:00,
2013-04-08 08:33:00,34.0,31.0,29.90,East,90,0.0,0.0,90,0.00,,,0.00,,2013-04-08 12:33:00,
2013-04-08 08:43:00,34.0,31.0,29.90,East,90,0.0,0.0,90,0.00,,,0.00,,2013-04-08 12:43:00,
2013-04-08 08:53:00,35.0,32.0,29.89,East,89,0.0,2.0,89,0.00,,,0.00,,2013-04-08 12:53:00,
2013-04-08 09:03:00,35.0,32.0,29.89,East,89,0.0,2.0,89,0.00,,,0.00,,2013-04-08 13:03:00,
2013-04-08 09:12:00,35.0,32.0,29.89,East,89,0.0,2.0,89,0.00,,,0.00,,2013-04-08 13:12:00,
2013-04-08 09:22:00,36.0,33.0,29.88,ESE,113,2.0,4.0,88,0.00,,,0.00,,2013-04-08 13:22:00,
2013-04-08 09:32:00,38.0,34.0,29.87,ENE,63,0.0,1.0,86,0.00,,,0.00,,2013-04-08 13:32:00,
2013-04-08 09:43:00,38.0,34.0,29.87,ENE,63,0.0,1.0,86,0.00,,,0.00,,2013-04-08 13:43:00,
2013-04-08 09:52:00,38.0,34.0,29.86,East,81,1.0,3.0,85,0.00,,,0.00,,2013-04-08 13:52:00,
2013-04-08 10:03:00,39.0,35.0,29.85,SE,141,0.0,5.0,84,0.00,,,0.00,,2013-04-08 14:03:00,
2013-04-08 10:12:00,39.0,35.0,29.85,SE,141,0.0,5.0,84,0.00,,,0.00,,2013-04-08 14:12:00,
2013-04-08 10:22:00,39.0,34.0,29.85,ESE,105,0.0,3.0,83,0.00,,,0.00,,2013-04-08 14:22:00,
2013-04-08 10:33:00,42.0,37.0,29.84,SSE,147,0.0,7.0,81,0.00,,,0.00,,2013-04-08 14:33:00,
2013-04-08 10:42:00,43.0,37.0,29.84,SSE,149,0.0,7.0,78,0.00,,,0.00,,2013-04-08 14:42:00,
2013-04-08 10:52:00,43.0,37.0,29.84,SSE,149,0.0,7.0,78,0.00,,,0.00,,2013-04-08 14:52:00,
2013-04-08 11:02:00,44.0,37.0,29.82,ESE,106,0.0,5.0,77,0.00,,,0.00,,2013-04-08 15:02:00,
2013-04-08 11:12:00,45.0,38.0,29.80,ESE,118,0.0,10.0,75,0.00,,,0.00,,2013-04-08 15:12:00,
2013-04-08 11:22:00,45.0,38.0,29.80,ESE,118,0.0,10.0,75,0.00,,,0.00,,2013-04-08 15:22:00,
2013-04-08 11:34:00,46.0,38.0,29.80,ESE,117,0.0,6.0,74,0.00,,,0.00,,2013-04-08 15:34:00,
2013-04-08 11:43:00,46.0,38.0,29.80,ESE,117,0.0,6.0,74,0.00,,,0.00,,2013-04-08 15:43:00,
2013-04-08 11:53:00,47.0,38.0,29.78,ENE,58,6.0,6.0,71,0.00,,,0.00,,2013-04-08 15:53:00,
2013-04-08 12:03:00,47.0,38.0,29.78,ESE,115,2.0,6.0,71,0.00,,,0.00,,2013-04-08 16:03:00,
2013-04-08 12:13:00,46.0,39.0,29.80,SE,127,0.0,6.0,76,0.00,,,0.00,,2013-04-08 16:13:00,
2013-04-08 12:23:00,46.0,39.0,29.80,SE,127,0.0,6.0,76,0.00,,,0.00,,2013-04-08 16:23:00,
2013-04-08 12:32:00,46.0,39.0,29.80,SE,127,0.0,6.0,76,0.00,,,0.00,,2013-04-08 16:32:00,
2013-04-08 12:42:00,44.0,39.0,29.78,NNE,29,0.0,6.0,84,0.02,,,0.02,,2013-04-08 16:42:00,
2013-04-08 12:53:00,44.0,39.0,29.78,NNE,29,0.0,6.0,84,0.02,,,0.02,,2013-04-08 16:53:00,
2013-04-08 13:03:00,43.0,40.0,29.76,East,99,1.0,3.0,88,0.03,,,0.03,,2013-04-08 17:03:00,
2013-04-08 13:12:00,43.0,41.0,29.74,ESE,103,0.0,6.0,91,0.04,,,0.04,,2013-04-08 17:12:00,
2013-04-08 13:23:00,43.0,41.0,29.74,ESE,103,0.0,6.0,91,0.04,,,0.04,,2013-04-08 17:23:00,
2013-04-08 13:32:00,43.0,41.0,29.72,East,88,0.0,7.0,92,0.04,,,0.05,,2013-04-08 17:32:00,
2013-04-08 13:45:00,43.0,41.0,29.72,East,88,0.0,7.0,92,0.04,,,0.05,,2013-04-08 17:45:00,
2013-04-08 13:52:00,43.0,41.0,29.72,ENE,74,0.0,7.0,92,0.04,,,0.06,,2013-04-08 17:52:00,
2013-04-08 14:02:00,43.0,41.0,29.72,ENE,74,0.0,7.0,92,0.04,,,0.06,,2013-04-08 18:02:00,
2013-04-08 14:12:00,43.0,41.0,29.70,East,84,0.0,3.0,93,0.04,,,0.08,,2013-04-08 18:12:00,
2013-04-08 14:23:00,43.0,41.0,29.70,East,84,0.0,3.0,93,0.04,,,0.08,,2013-04-08 18:23:00,
2013-04-08 14:32:00,44.0,42.0,29.70,East,88,0.0,4.0,93,0.04,,,0.10,,2013-04-08 18:32:00,
2013-04-08 14:42:00,44.0,42.0,29.69,East,80,0.0,0.0,93,0.04,,,0.11,,2013-04-08 18:42:00,
2013-04-08 14:52:00,44.0,42.0,29.69,East,80,0.0,0.0,93,0.04,,,0.11,,2013-04-08 18:52:00,
2013-04-08 15:03:00,44.0,42.0,29.68,NE,46,0.0,4.0,94,0.04,,,0.12,,2013-04-08 19:03:00,
2013-04-08 15:12:00,44.0,42.0,29.67,NE,46,0.0,3.0,94,0.04,,,0.13,,2013-04-08 19:12:00,
2013-04-08 15:23:00,44.0,42.0,29.67,NE,46,0.0,3.0,94,0.04,,,0.13,,2013-04-08 19:23:00,
2013-04-08 15:33:00,44.0,42.0,29.67,ENE,60,0.0,3.0,94,0.04,,,0.14,,2013-04-08 19:33:00,
2013-04-08 15:42:00,44.0,42.0,29.67,ENE,60,0.0,3.0,94,0.04,,,0.14,,2013-04-08 19:42:00,
2013-04-08 15:52:00,44.0,42.0,29.67,ENE,60,0.0,3.0,94,0.04,,,0.14,,2013-04-08 19:52:00,
2013-04-08 16:02:00,44.0,42.0,29.64,ENE,74,0.0,4.0,94,0.44,,,0.57,,2013-04-08 20:02:00,
2013-04-08 16:12:00,44.0,43.0,29.64,NE,53,0.0,0.0,95,0.43,,,0.58,,2013-04-08 20:12:00,
2013-04-08 16:23:00,44.0,43.0,29.64,NE,53,0.0,0.0,95,0.43,,,0.58,,2013-04-08 20:23:00,
2013-04-08 16:33:00,44.0,43.0,29.64,NE,53,0.0,0.0,95,0.43,,,0.58,,2013-04-08 20:33:00,
2013-04-08 16:43:00,44.0,43.0,29.64,NE,53,0.0,0.0,95,0.43,,,0.58,,2013-04-08 20:43:00,
2013-04-08 16:52:00,45.0,44.0,29.62,NE,40,3.0,4.0,95,0.08,,,0.58,,2013-04-08 20:52:00,
2013-04-08 17:02:00,45.0,44.0,29.62,NNE,32,0.0,3.0,95,0.04,,,0.58,,2013-04-08 21:02:00,
2013-04-08 17:12:00,44.0,43.0,29.62,NE,42,1.0,3.0,95,0.01,,,0.58,,2013-04-08 21:12:00,
2013-04-08 17:22:00,44.0,43.0,29.62,NE,42,1.0,3.0,95,0.01,,,0.58,,2013-04-08 21:22:00,
2013-04-08 17:33:00,44.0,43.0,29.61,NE,39,1.0,5.0,95,0.02,,,0.59,,2013-04-08 21:33:00,
2013-04-08 17:43:00,44.0,43.0,29.61,NE,39,1.0,5.0,95,0.02,,,0.59,,2013-04-08 21:43:00,
2013-04-08 17:53:00,44.0,43.0,29.62,NE,41,1.0,2.0,95,0.01,,,0.59,,2013-04-08 21:53:00,
2013-04-08 18:03:00,44.0,43.0,29.62,NE,53,0.0,3.0,95,0.01,,,0.59,,2013-04-08 22:03:00,
2013-04-08 18:13:00,44.0,43.0,29.62,NE,53,0.0,3.0,95,0.01,,,0.59,,2013-04-08 22:13:00,
2013-04-08 18:23:00,44.0,43.0,29.63,NE,53,0.0,0.0,95,0.01,,,0.59,,2013-04-08 22:23:00,
2013-04-08 18:32:00,44.0,43.0,29.63,NE,53,0.0,0.0,95,0.01,,,0.59,,2013-04-08 22:32:00,
2013-04-08 18:43:00,44.0,43.0,29.64,East,80,0.0,3.0,95,0.00,,,0.59,,2013-04-08 22:43:00,
2013-04-08 18:53:00,44.0,43.0,29.66,ENE,78,0.0,1.0,95,0.01,,,0.60,,2013-04-08 22:53:00,
2013-04-08 19:02:00,44.0,43.0,29.67,ENE,74,1.0,1.0,95,0.01,,,0.60,,2013-04-08 23:02:00,
2013-04-08 19:12:00,44.0,43.0,29.67,ENE,74,1.0,1.0,95,0.01,,,0.60,,2013-04-08 23:12:00,
2013-04-08 19:22:00,44.0,43.0,29.67,ENE,74,1.0,1.0,95,0.01,,,0.60,,2013-04-08 23:22:00,
2013-04-08 19:32:00,43.0,42.0,29.70,NW,306,0.0,0.0,95,0.01,,,0.60,,2013-04-08 23:32:00,
2013-04-08 19:43:00,43.0,42.0,29.70,NW,306,0.0,0.0,95,0.01,,,0.60,,2013-04-08 23:43:00,
2013-04-08 19:52:00,43.0,42.0,29.70,NW,306,0.0,0.0,95,0.01,,,0.60,,2013-04-08 23:52:00,
2013-04-08 20:02:00,43.0,42.0,29.72,East,82,0.0,0.0,95,0.00,,,0.60,,2013-04-09 00:02:00,
2013-04-08 20:13:00,43.0,42.0,29.72,East,82,0.0,0.0,95,0.00,,,0.60,,2013-04-09 00:13:00,
2013-04-08 20:22:00,43.0,42.0,29.74,East,82,0.0,0.0,95,0.00,,,0.60,,2013-04-09 00:22:00,
2013-04-08 20:32:00,43.0,42.0,29.74,East,82,0.0,0.0,95,0.00,,,0.60,,2013-04-09 00:32:00,
2013-04-08 20:42:00,43.0,42.0,29.74,East,82,0.0,0.0,95,0.00,,,0.60,,2013-04-09 00:42:00,
2013-04-08 20:52:00,43.0,42.0,29.76,West,265,1.0,3.0,95,0.00,,,0.60,,2013-04-09 00:52:00,
2013-04-08 21:02:00,42.0,41.0,29.78,NNW,327,2.0,4.0,95,0.00,,,0.60,,2013-04-09 01:02:00,
2013-04-08 21:12:00,42.0,41.0,29.78,NNW,327,2.0,4.0,95,0.00,,,0.60,,2013-04-09 01:12:00,
2013-04-08 21:22:00,42.0,41.0,29.80,West,271,0.0,2.0,95,0.00,,,0.60,,2013-04-09 01:22:00,
2013-04-08 21:33:00,42.0,41.0,29.80,West,271,0.0,2.0,95,0.00,,,0.60,,2013-04-09 01:33:00,
2013-04-08 21:42:00,42.0,41.0,29.83,West,278,1.0,4.0,95,0.00,,,0.60,,2013-04-09 01:42:00,
2013-04-08 21:52:00,42.0,41.0,29.83,West,278,1.0,4.0,95,0.00,,,0.60,,2013-04-09 01:52:00,
2013-04-08 22:02:00,42.0,41.0,29.84,North,5,1.0,3.0,95,0.00,,,0.60,,2013-04-09 02:02:00,
2013-04-08 22:13:00,42.0,41.0,29.84,North,5,1.0,3.0,95,0.00,,,0.60,,2013-04-09 02:13:00,
2013-04-08 22:22:00,41.0,40.0,29.85,WNW,286,0.0,2.0,95,0.00,,,0.60,,2013-04-09 02:22:00,
2013-04-08 22:33:00,41.0,40.0,29.87,NNW,343,0.0,1.0,95,0.00,,,0.60,,2013-04-09 02:33:00,
2013-04-08 22:43:00,41.0,40.0,29.88,NW,325,0.0,1.0,95,0.00,,,0.60,,2013-04-09 02:43:00,
2013-04-08 22:52:00,41.0,40.0,29.88,NW,325,0.0,1.0,95,0.00,,,0.60,,2013-04-09 02:52:00,
2013-04-08 23:02:00,41.0,40.0,29.88,NW,325,0.0,1.0,95,0.00,,,0.60,,2013-04-09 03:02:00,
2013-04-08 23:12:00,41.0,40.0,29.88,NW,325,0.0,1.0,95,0.00,,,0.60,,2013-04-09 03:12:00,
2013-04-08 23:22:00,41.0,40.0,29.88,NW,325,0.0,1.0,95,0.00,,,0.60,,2013-04-09 03:22:00,
2013-04-08 23:33:00,41.0,40.0,29.90,NW,317,0.0,3.0,95,0.00,,,0.60,,2013-04-09 03:33:00,
2013-04-08 23:43:00,41.0,40.0,29.90,NW,317,0.0,3.0,95,0.00,,,0.60,,2013-04-09 03:43:00,
2013-04-08 23:53:00,41.0,40.0,29.90,NW,318,2.0,3.0,95,0.00,,,0.60,,2013-04-09 03:53:00,